Location: Newark
(37.9000°S, 166.5167°W)
Time: 20:50:12
(UTC+00:00)

Envisat - Pass Details

Date: 27 January 2020
Orbit: 764 x 766 km, 98.1° (Epoch: 22 February)

Event Time Altitude Azimuth Distance (km) Brightness Sun altitude
Rises 15:24:25 0° 68° (ENE) 3,233 6.8 -9.4°
Reaches altitude 10° 15:28:21 10° 99° (E) 2,318 6.7 -8.7°
Maximum altitude 15:30:04 12° 119° (ESE) 2,206 7.0 -8.5°
Drops below altitude 10° 15:31:47 10° 139° (SE) 2,328 6.9 -8.2°
Sets 15:35:45 0° 169° (S) 3,265 6.9 -7.5°
